Showing default

O3B FM7, 40080

Orbit data source: Space-Track

O3B FM7, 40080 is a payload satellite owned by O3B (JE) that was launched on Thu, 10 Jul 2014 UTC via a SOYUZ-ST-B launch vehicle from the French Guiana (FRGUI). Payload-class satellites include a variety of spacecraft equipped with specific instruments for various scientific and technological missions. These include communications satellites like Starlink; space stations such as the ISS; scientific satellites like the Hubble; Earth observation satellites from companies like Planet Labs, Umbra, and HawkEye 360; GPS; miniature CubeSats for education and research; and military/defense satellites.

Loading next visibility...
Identifier
40080, 2014-038B
Orbit
Active
Country
Flag of UnknownUnknown / O3B
Related business
Manufacturer
Thales Alenia
Mission
Operational Commercial Communications
Bus & Motor
PRISMA?, LS-400 AOCS?
Mass
700 kg wet, ~500 kg dry
Launch date (UTC)
2014-07-10 (12 years ago)
Launch vehicle
SOYUZ-ST-B
Launch site
French Guiana (FRGUI)
Object type
Payload
Rocket body
Debris
Shape & HBR
Trap Box + 2 Pan, 6.0 m
Radar Cross Section
21.980 m², Large (>1 m²)

Expand to show TLE details & history
Last TLE update: 2 days ago

TLE from 2 days ago
0 O3B FM7
1 40080U 14038B   26171.25018743 -.00000024  00000-0  00000+0 0  9991
2 40080   0.0470 344.8361 0003798  77.2780 297.9219  5.00115643218030
Epoch: 2026-06-20T06:00Z
TLE epoch observation values (Epoch: 2026-06-20T06:00:16.193Z)
Latitude
0.01235°
Longitude
1.46492°
Altitude
8,061.802 km
Speed
5.255 km/s
True Right ascension
23h 59m 59s
True Declination
0° 00' 44"
Sunlit
Object was in daylight at epoch
Visualization orbit readout
Latitude
Unknown
Longitude
Unknown
Altitude
Unknown
Speed
Unknown
Apparent Right ascension
Unknown
Apparent Declination
Unknown
Sunlit
N/A
Visualization observer readout
Local Sidereal Time
21:39:16
Azimuth
Unknown
Elevation
Unknown
Doppler factor
Unknown
Orbital elements
Apogee altitude
8,074.433 km
Perigee altitude
8,063.459 km
Semi-major axis
14,447.083 km
Eccentricity
0.00038
Inclination
0.047°
RAAN
344.8361°
Arg. of periapsis
77.278°
True anomaly
297.88344°
Mean anomaly
297.9219°
Eccentric anomaly
297.90267°
Mean motion
1.24989 °/min
Orbital period
288.02 mins
BSTAR
0
Loading maneuver chart data...
Computing Atmospheric mass density...
Loading historical data...
Loading historical data...
Loading historical data...
Loading historical data...
Loading historical data...
Loading historical data...
Loading historical data...
Other satellites on launch #38 in the year 2014 (2014-07-10 UTC)

Documentation

Showing up to 5 results
|